Find Kosmos-1362

NORAD ID: 13165 Int'l Des: 1982-040 Owner: GUKOS Country: SU operational
LEOCIRCULAR

实时位置

正在加载3D地球...

关于 Kosmos-1362

正在加载描述...

即将过境

Passes for default location (London). Set your location on the main map for personalized predictions.

高度历史

Loading altitude history...

两行轨道根数

1 13165U 82040F 26106.67734751 -.00000001 00000-0 99021-4 0 9992
2 13165 74.0123 187.9149 0017593 37.3619 77.7190 12.46159737999056
Epoch: Apr 16, 2026 • Age: 11 hours

当前状态

高度 1470.0 km
速度 7.14 km/s
星下点 28.87°N, 59.35°W
发射日期 May 6, 1982
运行时间 43.9 years
类型 other

技术详情

分类 Payload
质量 60.00 kg
干质量 60.00 kg
总质量 60.00 kg
长度 0.80 m
直径 0.80 m
跨度 0.80 m
形状 Poly
制造商 NPOPM
平台类型 Strela-1 11F625
阶段状态 In Orbit
所有者/国家 GUKOS/SU

Most Searched